Weather History for BGBW - February, 2013

Change the Weather History Date:

Monday, February 25, 2013

  Actual Average Record
Temperature  
Mean Temperature 26 °F -  
Max Temperature 31 °F 31 °F 46 °F (2005)
Min Temperature 22 °F 16 °F -5 °F (1997)
Degree Days  
Heating Degree Days 38    
Moisture  
Dew Point 22 °F    
Average Humidity 82    
Maximum Humidity 93    
Minimum Humidity 70    
Precipitation  
Precipitation 0.00 in 0.05 in - ()
Sea Level Pressure  
Sea Level Pressure 29.28 in    
Wind  
Wind Speed 1 mph ()    
Max Wind Speed 6 mph    
Max Gust Speed -    
Visibility 6.2 miles    
Events      
Averages and records for this station are not official NWS values.
T = Trace of Precipitation, MM = Missing Value Source: Averaged Metar Reports

Daily Weather History Graph

Daily Weather History Graph

Search for Another Location

Airport or City:

Trip Planner

Search our weather history database for the weather conditions in past years. The results will help you decide how hot, cold, wet, or windy it might be!

Date:

Astronomy

Feb. 25, 2013 Rise Set
Actual Time 7:13 AM WGT 5:16 PM WGT
Civil Twilight 6:30 AM WGT 6:00 PM WGT
Nautical Twilight 5:40 AM WGT 6:50 PM WGT
Astronomical Twilight 4:50 AM WGT 7:41 PM WGT
Moon 5:37 PM WGT (2/25) 6:32 AM WGT (2/25)
Length of Visible Light 11h 30m
Length of Day
10h 02m
Full, 100% of the Moon is Illuminated
Feb 25
Full
Feb 25
Full
Mar 4
Last Quarter
Mar 11
New
Mar 19
First Quarter

Hourly Weather History & Observations

Time (WGT) Temp. Windchill Dew Point Humidity Pressure Visibility Wind Dir Wind Speed Gust Speed Precip Events Conditions
12:00 AM 22 °F - 19 °F 84% 29.39 in 28 mi Calm Calm - -   Scattered Clouds
3:00 AM 24 °F - 20 °F 79% 29.35 in 31 mi Calm Calm - -   Mostly Cloudy
6:00 AM 24 °F - 20 °F 76% 29.36 in 31 mi Calm Calm - -   Mostly Cloudy
6:50 AM 23.0 °F - 19.4 °F 86% 29.36 in 6.2 mi Calm Calm - N/A   Mostly Cloudy
7:50 AM 23.0 °F - 21.2 °F 93% 29.36 in 6.2 mi Calm Calm - N/A   Mostly Cloudy
8:50 AM 26.6 °F - 21.2 °F 80% 29.36 in 6.2 mi Calm Calm - N/A   Mostly Cloudy
9:00 AM 25 °F - 20 °F 75% 29.36 in 28 mi Calm Calm - -   Partly Cloudy
10:50 AM 26.6 °F - 23.0 °F 86% 29.33 in 6.2 mi Calm Calm - N/A   Mostly Cloudy
11:50 AM 30.2 °F - 24.8 °F 80% 29.30 in 6.2 mi WSW 2.3 mph - N/A   Mostly Cloudy
12:00 PM 29 °F - 23 °F 71% 29.30 in 22 mi WNW 1.2 mph - -   Scattered Clouds
12:50 PM 28.4 °F 24.6 °F 24.8 °F 86% 29.27 in 6.2 mi West 3.5 mph - N/A   Mostly Cloudy
1:50 PM 30.2 °F - 24.8 °F 80% 29.24 in 6.2 mi WSW 2.3 mph - N/A   Mostly Cloudy
2:50 PM 28.4 °F 22.2 °F 24.8 °F 86% 29.24 in 6.2 mi WNW 5.8 mph - N/A   Mostly Cloudy
3:00 PM 29 °F - 24 °F 75% 29.25 in 22 mi WNW 4.6 mph - -   Scattered Clouds
3:50 PM 28.4 °F - 24.8 °F 86% 29.21 in 6.2 mi North 1.2 mph - N/A   Mostly Cloudy
4:50 PM 28.4 °F - 24.8 °F 86% 29.21 in 6.2 mi Variable 2.3 mph - N/A   Mostly Cloudy
6:00 PM 28 °F - 25 °F 84% 29.23 in 28 mi East 2.3 mph - -   Partly Cloudy
9:00 PM 27 °F - 21 °F 70% 29.21 in 31 mi ENE 4.6 mph - -   Scattered Clouds
9:50 PM 24.8 °F - 21.2 °F 86% 29.18 in 6.2 mi Calm Calm - N/A   Mostly Cloudy
10:50 PM 24.8 °F - 21.2 °F 86% 29.18 in 6.2 mi Calm Calm - N/A   Mostly Cloudy
11:50 PM 26.6 °F - 23.0 °F 86% 29.18 in 6.2 mi Calm Calm - N/A   Overcast